Regional Weather Roundup
Issued by NWS Green Bay, WI

Home | Current Version | Previous Version | Text Only | Print | Product List | Glossary On
Versions: 1 2 3 4 5 6 7 8 9 10 11 12 13 14 15 16 17 18 19 20 21 22 23 24 25 26 27 28 29 30 31 32 33 34 35 36 37 38 39 40 41 42 43 44 45 46 47 48 49 50
000
ASUS43 KGRB 300311
RWRGRB

NORTH-CENTRAL AND NORTHEAST WISCONSIN REGIONAL WEATHER ROUNDUP
NATIONAL WEATHER SERVICE GREEN BAY WI
1000 PM CDT MON AUG 29 2016

WIZ005-009-010>012-018-019-300400-
NORTH CENTRAL WISCONSIN

CITY           SKY/WX    TMP DP  RH WIND       PRES   REMARKS
IRONWOOD       TSTM      66  66 100 S5        30.17R
MANITOWISH WTR LGT RAIN  72  71  96 W3        30.17R
ARBOR VITAE    CLOUDY    72  68  87 CALM      30.17S
EAGLE RIVER    CLOUDY    70  70 100 CALM      30.17F
LAND O LAKES   CLOUDY    70  66  88 CALM      30.17F
RHINELANDER    CLOUDY    73  71  93 SW6       30.19R
PHILLIPS       CLOUDY    71  70  96 SW5       30.17S
ANTIGO         MOCLDY    70  68  94 CALM      30.19F
TOMAHAWK       CLOUDY    70  68  93 CALM      30.19S
MERRILL        PTCLDY    73  71  96 SW3       30.19S
$$

WIZ013-073-300400-
NORTHEAST WISCONSIN

CITY           SKY/WX    TMP DP  RH WIND       PRES   REMARKS
IRON MOUNTAIN  MOCLDY    72  67  84 CALM      30.13S
MARINETTE      NOT AVBL
OCONTO         PTCLDY    71  69  92 CALM      30.14S
$$

WIZ017-030-035>037-045-300400-
CENTRAL WISCONSIN

CITY           SKY/WX    TMP DP  RH WIND       PRES   REMARKS
MEDFORD        CLOUDY    71  71 100 SW3       30.20S
WAUSAU         CLEAR     73  69  87 SW7       30.17S
MOSINEE        CLEAR     70  70 100 S7        30.19S
MARSHFIELD     CLEAR     70  67  90 SW5       30.19S
WISC RAPIDS    FOG       69  69 100 CALM      30.20S VSB 1
STEVENS POINT  PTCLDY    70  68  94 SW3       30.18F
WAUPACA        CLEAR     72  72  98 CALM      30.18S
SHAWANO        PTCLDY    76  70  82 CALM      30.16S
CLINTONVILLE   CLEAR     72  68  88 SW5       30.16S
WAUTOMA        CLEAR     68  67  96 CALM      30.18S
$$

WIZ038-039-048-051-300400-
FOX VALLEY

CITY           SKY/WX    TMP DP  RH WIND       PRES   REMARKS
NWS GREEN BAY  CLEAR     72  71  97 SW5       30.16S
APPLETON       MOCLDY    72  70  94 VRB5      30.16S
OSHKOSH        CLEAR     73  68  84 SW3       30.17S
FOND DU LAC    CLEAR     70  68  93 CALM      30.18S
$$

WIZ022-050-052-300400-
EAST CENTRAL WISCONSIN

CITY           SKY/WX    TMP DP  RH WIND       PRES   REMARKS
EPHRAIM        FAIR      69  65  86 SW3       30.14S
WASHINGTON ISL NOT AVBL
STURGEON BAY   PTCLDY    70  65  84 S7        30.16S
MANITOWOC      PTCLDY    66  63  90 CALM      30.18R
SHEBOYGAN      CLOUDY    66  63  90 CALM      30.18S
$$

LMZ563-521-522-541>543-300400-
LAKESHORE

STATION/POSITION TIME  TEMP    WIND        PRES    VSBY  WAVE
                       AIR SEA DIR/SP/G                  HT/PER
                 (UTC) (F)     (DEG/KT/KT) (MB)    (MI)  (FT/S)
SHEBOYGAN LKSHOR 0300   69        CALM     1021.3R
KEWAUNEE LKSHORE 0200   66                 1020.8F
ALGOMA MARINA    0245          220/  9/ 11   N/A
NORTHPORT PIER   0200   73     170/  5/ 10 1020.3F
N MID LAKE BUOY  0250   72 71  210/ 12/ 14 1019.8F         2/ 3
S GREEN BAY BUOY 0200   75 74  180/ 12/ 14 1020.1F
SISTER BAY LKSHO 0207   73     190/ 12/ 15   N/A
CHAMBERS ISLAND  0200   74     160/  6/ 10 1020.3S
MENOMINEE LKSHOR 0200   74                 1019.7F
$$




USA.gov is the U.S. government's official web portal to all federal, state and local government web resources and services.